Cloud_Cover
100 100 100 100 100 100 100 100 100 100 100 100 100 100 100 100 7 0 0 1 0 0 5 8 9 5 5 5 5 5 5 5 5 5 5 5 4 5 69 70 8 68 86 74
100 100 100 100 100 100 100 100 100 100 100 100 100 100 100 85 6 5 0 0 0 0 5 5 5 4 5 5 5 5 5 5 5 5 5 5 65 100 68 44 86 66 50 5
100 100 100 100 100 100 100 100 100 100 100 100 100 100 100 52 5 5 5 0 0 3 5 5 4 0 5 2 4 5 5 5 5 11 63 78 68 67 100 100 98 72 73 50
100 100 100 100 100 100 100 100 100 100 100 100 100 100 99 22 5 5 5 4 3 5 5 5 0 0 0 5 5 5 8 57 69 88 66 66 92 97 97 91 74 100 80 6
100 100 100 100 100 100 87 83 100 81 100 57 22 58 6 70 5 5 5 5 5 5 5 5 0 0 0 5 5 40 99 97 22 56 73 67 70 94 59 95 98 9 5 18
100 100 100 100 28 78 5 29 3 5 58 9 72 100 99 58 43 5 5 5 5 5 5 5 2 2 5 5 49 62 94 91 76 11 77 95 92 100 100 52 8 48 61 5
100 96 84 60 21 8 5 1 5 17 93 8 64 100 100 100 99 56 4 5 5 5 5 5 5 5 5 28 92 100 93 4 14 98 75 37 99 96 22 8 68 28 5 5
55 38 61 50 5 5 12 11 5 3 2 98 88 88 59 9 5 3 2 0 4 4 4 5 5 14 88 100 78 18 5 29 85 38 93 100 61 6 34 19 5 5 5 5
55 52 5 5 31 5 5 18 50 5 5 89 100 76 5 5 5 4 4 5 5 5 5 58 67 33 14 9 5 5 5 5 68 100 57 6 5 38 6 5 5 5 4 0
53 10 26 89 78 97 88 100 84 84 100 100 100 100 90 56 16 51 40 5 5 5 6 6 22 5 5 5 7 5 30 95 76 5 5 5 5 5 5 5 5 4 0 0
51 56 44 25 65 98 100 100 100 100 100 100 82 10 5 26 23 32 36 21 5 5 5 5 5 5 5 5 5 43 71 41 5 5 5 5 5 7 19 5 5 0 5 5
100 100 100 100 100 100 100 100 100 100 96 98 91 78 58 72 80 57 27 13 5 5 5 5 5 5 5 8 59 60 56 11 5 5 5 5 67 98 23 5 5 5 2 5
100 100 100 100 100 100 100 100 100 100 99 100 100 100 63 18 7 5 5 5 5 5 5 4 5 5 59 61 66 13 28 43 5 23 37 70 78 19 11 87 6 0 0 5
100 100 100 100 100 100 100 100 100 100 100 100 98 60 43 37 8 5 5 3 3 1 1 5 48 60 47 40 58 37 5 15 41 54 86 100 70 84 48 5 0 0 0 3
100 99 100 100 94 100 98 96 100 100 75 40 25 29 5 5 5 5 5 2 2 14 66 76 71 49 66 41 5 9 59 40 71 100 100 100 100 80 5 4 0 0 0 0
100 100 100 95 100 98 75 85 65 69 51 24 10 15 16 5 4 0 2 58 99 93 70 46 70 57 6 5 51 69 58 94 100 100 100 100 100 45 5 2 0 0 0 4
100 100 75 95 63 14 31 27 5 5 68 100 100 80 6 0 3 41 100 81 54 49 76 31 23 40 60 81 88 100 100 98 100 100 100 91 30 5 5 0 0 0 5 10
74 81 22 26 5 5 5 5 10 84 100 100 98 22 6 76 85 78 90 72 82 56 24 64 29 90 100 99 87 89 91 99 100 93 98 67 20 5 0 0 4 5 5 12
73 60 5 6 5 5 24 16 79 100 100 97 12 31 68 93 96 89 91 74 38 64 17 52 90 84 83 92 66 82 100 100 100 100 73 10 5 2 2 5 9 49 62 99
100 100 99 99 81 69 58 100 100 100 70 86 99 98 100 100 85 55 31 38 7 33 63 55 58 84 63 56 99 100 98 64 48 25 5 5 1 5 5 29 87 85 100 100
60 79 94 100 100 91 100 100 100 100 100 100 100 100 100 92 40 14 5 5 11 22 65 64 57 6 43 66 76 73 90 72 6 5 0 0 5 5 44 93 100 100 100 100
56 87 100 83 80 92 100 89 99 100 100 100 100 100 19 16 5 11 32 27 42 70 60 5 7 12 33 80 95 74 5 4 1 0 4 5 5 63 85 100 100 100 100 100
95 88 100 100 98 86 98 100 100 100 100 100 96 53 31 27 27 25 39 40 11 5 17 39 17 68 100 72 18 2 0 0 4 5 5 10 56 43 92 100 100 100 100 100
100 100 100 98 100 100 99 100 100 100 100 100 81 87 76 57 57 44 17 44 23 24 28 6 24 21 5 5 0 3 5 5 5 5 11 53 49 94 100 100 100 100 100 100
100 100 100 100 100 100 100 100 100 100 100 100 88 73 80 99 98 97 100 87 35 5 5 5 5 5 0 0 2 5 5 5 6 77 6 94 100 100 99 100 100 100 100 94
100 100 100 100 100 100 100 100 100 100 100 97 96 100 100 100 100 94 50 6 5 5 5 5 5 5 4 0 1 0 3 5 5 39 98 81 76 91 100 100 100 100 100 96
100 100 100 100 100 100 100 100 100 100 98 86 88 100 89 58 28 7 5 7 5 5 5 5 5 0 0 2 0 4 5 5 57 94 71 72 98 100 100 100 100 100 100 100